Overview Statistics Trail Chart Weather Telemetry Raw packets
 

This is the latest recevied weather packets stored in our database for station/object OK1FET-4. If no packets are shown the sender has not sent any weather packets the latest 10 day(s).

<< 33 34 35 36 37 38 39 >>
Time Temp. Humidity Pressure Rain* Wind** Luminosity Snow
1788433431 23.33° C 55% 1020.9 hPa - - - -
1788433130 23.33° C 51% 1020.9 hPa - - - -
1788432829 23.33° C 48% 1020.9 hPa - - - -
1788432527 22.78° C 49% 1021 hPa - - - -
1788432226 22.78° C 50% 1021 hPa - - - -
1788431925 22.78° C 53% 1021.2 hPa - - - -
1788431624 22.78° C 53% 1021.3 hPa - - - -
1788431322 22.78° C 51% 1021.1 hPa - - - -
1788431021 22.78° C 56% 1021.1 hPa - - - -
1788430720 22.78° C 54% 1021.2 hPa - - - -
1788430419 22.22° C 55% 1021.3 hPa - - - -
1788430118 22.22° C 53% 1021.3 hPa - - - -
1788429817 22.22° C 54% 1021.4 hPa - - - -
1788429516 22.22° C 52% 1021.4 hPa - - - -
1788429214 22.22° C 54% 1021.4 hPa - - - -
1788428913 22.22° C 55% 1021.5 hPa - - - -
1788428612 21.67° C 58% 1021.5 hPa - - - -
1788428311 21.67° C 57% 1021.5 hPa - - - -
1788428010 21.67° C 55% 1021.5 hPa - - - -
1788427709 21.67° C 58% 1021.4 hPa - - - -
1788427408 21.67° C 57% 1021.3 hPa - - - -
1788427107 21.11° C 64% 1021.6 hPa - - - -
1788426806 20.56° C 63% 1021.6 hPa - - - -
1788426505 20.56° C 71% 1021.5 hPa - - - -
1788426204 21.11° C 100% 1021.6 hPa - - - -

* Rain since midnight (hover to see other rain measurements)
** Current wind speed in m/s (hover to see current wind gust speed)